Back to catalog

THORAD AGENA D DEB

AlivePO
NORAD 4777·DEBRIS·🇺🇸 United States

Launched Apr 8, 1970 from Vandenberg Space Force Base

Loading…

Next Passes

TLE

Source: Space-Track
1  4777U 70025DX  26224.94850662  .00000097  00000-0  11591-3 0  9991
2  4777  99.9433 342.6107 0005298 325.3176 160.5222 13.91888002814931

Track THORAD AGENA D DEB in real time with AllMySat

Download on the App Store